This is the latest recevied weather packets stored in our database for station/object BG5HLN-13. If no packets are shown the sender has not sent any weather packets the latest 10 day(s).
| Time | Temp. | Humidity | Pressure | Rain* | Wind** | Luminosity | Snow |
|---|---|---|---|---|---|---|---|
| 1788238001 | 34.44° C | 76% | 1007.7 hPa | 0 mm | - | - | - |
| 1788237400 | 34.44° C | 76% | 1007.6 hPa | 0 mm | - | - | - |
| 1788236800 | 33.89° C | 76% | 1007.7 hPa | 0 mm | - | - | - |
| 1788236201 | 33.89° C | 77% | 1007.7 hPa | 0.25 mm | - | - | - |
| 1788235601 | 33.89° C | 77% | 1007.6 hPa | 0.76 mm | - | - | - |
| 1788235001 | 33.89° C | 77% | 1007.6 hPa | 0.76 mm | - | - | - |
| 1788234401 | 33.89° C | 78% | 1007.6 hPa | 0.76 mm | - | - | - |
| 1788233801 | 33.33° C | 78% | 1007.6 hPa | 0.76 mm | - | - | - |
| 1788233200 | 33.33° C | 77% | 1007.8 hPa | 0.76 mm | - | - | - |
| 1788232600 | 33.89° C | 76% | 1008 hPa | 0.76 mm | - | - | - |
| 1788232001 | 33.89° C | 76% | 1007.9 hPa | 0.25 mm | - | - | - |
| 1788231401 | 33.89° C | 75% | 1007.9 hPa | 0.51 mm | - | - | - |
| 1788230803 | 33.89° C | 75% | 1007.9 hPa | 0.76 mm | - | - | - |
| 1788230200 | 33.89° C | 76% | 1007.8 hPa | 0.76 mm | - | - | - |
| 1788229601 | 33.33° C | 75% | 1007.9 hPa | 1.27 mm | - | - | - |
| 1788229000 | 33.33° C | 74% | 1007.9 hPa | 1.78 mm | - | - | - |
| 1788228400 | 33.33° C | 76% | 1007.8 hPa | 1.78 mm | - | - | - |
| 1788227800 | 33.33° C | 77% | 1007.8 hPa | 1.52 mm | - | - | - |
| 1788227200 | 32.78° C | 76% | 1007.9 hPa | 1.27 mm | - | - | - |
| 1788226600 | 32.78° C | 75% | 1008 hPa | 1.27 mm | - | - | - |
| 1788226000 | 32.78° C | 77% | 1008 hPa | 0.76 mm | - | - | - |
| 1788225400 | 32.78° C | 78% | 1008 hPa | 0 mm | - | - | - |
| 1788224799 | 32.22° C | 78% | 1007.8 hPa | 0 mm | - | - | - |
| 1788224200 | 32.22° C | 78% | 1007.7 hPa | 0 mm | - | - | - |
| 1788223600 | 32.22° C | 79% | 1007.5 hPa | 0 mm | - | - | - |
* Rain latest hour (hover to see other rain measurements)
** Current wind speed in m/s (hover to see current wind gust speed)